Location: Caltech
(34.1382°N, 118.1253°W)
Time: 16:22:20
(UTC-07:00)

Cosmos 1937 Rocket - Visible Passes

Search period start: 17 August 2017 00:00
Search period end: 27 August 2017 00:00
Orbit: 746 x 781 km, 74.0° (Epoch: 17 August)

Date Brightness Start Highest point End Pass type
(mag) Time Alt. Az. Time Alt. Az. Time Alt. Az.
17 Aug 5.7 02:13:28 10° N 02:15:21 21° N 02:15:21 21° N visible
18 Aug 6.1 01:35:44 10° N 01:37:06 16° NNE 01:37:06 16° NNE visible
19 Aug 6.4 00:58:43 10° NNE 00:58:55 10° NNE 00:58:55 10° NNE visible
19 Aug 6.1 02:38:33 10° NNW 02:39:03 13° NNW 02:39:03 13° NNW visible
20 Aug 6.2 02:00:13 10° NNW 02:00:56 14° N 02:00:56 14° N visible
21 Aug 6.3 01:22:12 10° N 01:22:50 13° N 01:22:50 13° N visible
22 Aug 6.5 00:44:35 10° NNE 00:44:49 11° NNE 00:44:49 11° NNE visible
24 Aug 6.5 01:08:54 10° N 01:09:01 11° N 01:09:01 11° N visible
25 Aug 6.5 00:30:58 10° N 00:31:05 11° N 00:31:05 11° N visible
